| time (UTC) | temp C | wind direction | speed KPH | gust KPH | rain 1hr cm | rain 24hr cm | rain mn cm | humidity % | barometer mb |
| 20260508231650 | 17 | 128 | 0.0 | 3.2 | 0.00 | 0.08 | 0.00 | ||
| 20260508231148 | 18 | 101 | 3.2 | 1.6 | 0.00 | 0.08 | 0.00 | ||
| 20260508230649 | 18 | 124 | 3.2 | 3.2 | 0.00 | 0.08 | 0.00 | ||
| 20260508225647 | 18 | 138 | 3.2 | 1.6 | 0.00 | 0.08 | 0.00 | ||
| 20260508225537 | 18 | 152 | 6.4 | 8.0 | 0.00 | 0.08 | 0.00 | ||
| 20260508225146 | 18 | 159 | 6.4 | 4.8 | 0.00 | 0.08 | 0.00 | ||
| 20260508224145 | 18 | 152 | 6.4 | 8.0 | 0.00 | 0.08 | 0.00 | ||
| 20260508223144 | 18 | 134 | 8.0 | 4.8 | 0.00 | 0.08 | 0.00 | ||
| 20260508222645 | 18 | 131 | 8.0 | 8.0 | 0.00 | 0.08 | 0.00 | ||
| 20260508222144 | 18 | 141 | 6.4 | 3.2 | 0.00 | 0.08 | 0.00 | ||
| 20260508221645 | 18 | 122 | 6.4 | 6.4 | 0.00 | 0.08 | 0.00 | ||
| 20260508221143 | 18 | 138 | 9.7 | 8.0 | 0.00 | 0.08 | 0.00 | ||
| 20260508220644 | 19 | 135 | 3.2 | 0.0 | 0.00 | 0.08 | 0.00 | ||
| 20260508220142 | 19 | 146 | 4.8 | 4.8 | 0.00 | 0.08 | 0.00 | ||
| 20260508215644 | 19 | 131 | 4.8 | 9.7 | 0.00 | 0.08 | 0.00 | ||
| 20260508214643 | 18 | 134 | 4.8 | 8.0 | 0.00 | 0.08 | 0.00 | ||
| 20260508214141 | 19 | 149 | 8.0 | 8.0 | 0.00 | 0.08 | 0.00 | ||
| 20260508213642 | 19 | 132 | 4.8 | 6.4 | 0.00 | 0.08 | 0.00 | ||
| 20260508213140 | 19 | 115 | 6.4 | 4.8 | 0.00 | 0.08 | 0.00 | ||
| 20260508212139 | 19 | 150 | 12.9 | 14.5 | 0.00 | 0.08 | 0.00 | ||
| 20260508211640 | 20 | 160 | 8.0 | 8.0 | 0.00 | 0.08 | 0.00 | ||
| 20260508211139 | 20 | 143 | 11.3 | 9.7 | 0.00 | 0.08 | 0.00 | ||
| 20260508210640 | 20 | 132 | 11.3 | 9.7 | 0.00 | 0.08 | 0.00 | ||
| 20260508210138 | 20 | 143 | 4.8 | 6.4 | 0.00 | 0.08 | 0.00 | ||
| 20260508205639 | 20 | 127 | 6.4 | 8.0 | 0.00 | 0.08 | 0.00 | ||
| 20260508205137 | 20 | 111 | 11.3 | 11.3 | 0.00 | 0.08 | 0.00 | ||
| 20260508204638 | 20 | 128 | 12.9 | 14.5 | 0.00 | 0.08 | 0.00 | ||
| 20260508204136 | 20 | 127 | 11.3 | 11.3 | 0.00 | 0.08 | 0.00 | ||
| 20260508203637 | 20 | 129 | 12.9 | 12.9 | 0.00 | 0.08 | 0.00 | ||
| 20260508203135 | 20 | 158 | 11.3 | 6.4 | 0.00 | 0.08 | 0.00 | ||
| 20260508202134 | 21 | 162 | 6.4 | 8.0 | 0.00 | 0.08 | 0.00 | ||
| 20260508201635 | 20 | 148 | 12.9 | 9.7 | 0.00 | 0.08 | 0.00 | ||
| 20260508200133 | 21 | 121 | 8.0 | 4.8 | 0.00 | 0.08 | 0.00 | ||
| 20260508195634 | 21 | 136 | 9.7 | 12.9 | 0.00 | 0.08 | 0.00 | ||
| 20260508195132 | 21 | 150 | 3.2 | 8.0 | 0.00 | 0.08 | 0.00 | ||
| 20260508194634 | 21 | 125 | 9.7 | 3.2 | 0.00 | 0.08 | 0.00 | ||
| 20260508194132 | 21 | 120 | 11.3 | 8.0 | 0.00 | 0.08 | 0.00 | ||
| 20260508193633 | 21 | 150 | 11.3 | 4.8 | 0.00 | 0.08 | 0.00 | ||
| 20260508192131 | 21 | 148 | 11.3 | 6.4 | 0.00 | 0.08 | 0.00 | ||
| 20260508191632 | 21 | 97 | 9.7 | 8.0 | 0.00 | 0.08 | 0.00 | ||
| 20260508191130 | 21 | 158 | 12.9 | 12.9 | 0.00 | 0.08 | 0.00 | ||
| 20260508190130 | 21 | 156 | 0.0 | 6.4 | 0.00 | 0.08 | 0.00 | ||
| 20260508185129 | 21 | 120 | 12.9 | 14.5 | 0.00 | 0.08 | 0.00 | ||
| 20260508184128 | 21 | 141 | 12.9 | 12.9 | 0.00 | 0.08 | 0.00 | ||
| 20260508183629 | 21 | 139 | 12.9 | 4.8 | 0.00 | 0.08 | 0.00 | ||
| 20260508183128 | 21 | 93 | 14.5 | 8.0 | 0.00 | 0.08 | 0.00 | ||
| 20260508182629 | 22 | 108 | 8.0 | 4.8 | 0.00 | 0.08 | 0.00 | ||
| 20260508181627 | 22 | 53 | 6.4 | 6.4 | 0.00 | 0.08 | 0.00 | ||
| 20260508181125 | 22 | 104 | 6.4 | 4.8 | 0.00 | 0.08 | 0.00 | ||
| 20260508180125 | 22 | 66 | 3.2 | 1.6 | 0.00 | 0.08 | 0.00 | ||
| 20260508175626 | 22 | 98 | 0.0 | 4.8 | 0.00 | 0.08 | 0.00 | ||
| 20260508175124 | 22 | 94 | 6.4 | 8.0 | 0.00 | 0.08 | 0.00 | ||
| 20260508174625 | 22 | 80 | 0.0 | 3.2 | 0.00 | 0.08 | 0.00 | ||
| 20260508173625 | 22 | 135 | 3.2 | 1.6 | 0.00 | 0.08 | 0.00 | ||
| 20260508171623 | 22 | 100 | 1.6 | 4.8 | 0.00 | 0.08 | 0.00 | ||
| 20260508170623 | 23 | 90 | 4.8 | 4.8 | 0.00 | 0.08 | 0.00 | ||
| 20260508165622 | 22 | 80 | 0.0 | 0.0 | 0.00 | 0.08 | 0.00 | ||
| 20260508165120 | 22 | 105 | 6.4 | 4.8 | 0.00 | 0.08 | 0.00 | ||
| 20260508162118 | 22 | 98 | 1.6 | 0.0 | 0.00 | 0.08 | 0.00 | ||
| 20260508161117 | 22 | 93 | 3.2 | 4.8 | 0.00 | 0.08 | 0.00 | ||
| 20260508160115 | 22 | 72 | 1.6 | 4.8 | 0.00 | 0.08 | 0.00 | ||
| 20260508154615 | 21 | 103 | 4.8 | 6.4 | 0.00 | 0.08 | 0.00 | ||
| 20260508153612 | 20 | 101 | 6.4 | 11.3 | 0.00 | 0.08 | 0.00 | ||
| 20260508152110 | 20 | 93 | 8.0 | 8.0 | 0.00 | 0.08 | 0.00 | ||
| 20260508151109 | 19 | 132 | 6.4 | 11.3 | 0.00 | 0.08 | 0.00 | ||
| 20260508143600 | 18 | 100 | 8.0 | 12.9 | 0.00 | 0.08 | 0.00 | ||
| 20260508142557 | 18 | 96 | 8.0 | 9.7 | 0.00 | 0.08 | 0.00 | ||
| 20260508142055 | 17 | 73 | 8.0 | 11.3 | 0.00 | 0.08 | 0.00 | ||
| 20260508141556 | 18 | 104 | 4.8 | 6.4 | 0.00 | 0.08 | 0.00 | ||
| 20260508140554 | 17 | 80 | 11.3 | 12.9 | 0.00 | 0.08 | 0.00 | ||
| 20260508134551 | 17 | 103 | 9.7 | 14.5 | 0.00 | 0.08 | 0.00 | ||
| 20260508133550 | 16 | 127 | 12.9 | 9.7 | 0.00 | 0.08 | 0.00 | ||
| 20260508133037 | 17 | 100 | 9.7 | 8.0 | 0.00 | 0.08 | 0.00 | ||
| 20260508132548 | 17 | 100 | 9.7 | 8.0 | 0.00 | 0.08 | 0.00 | ||
| 20260508125751 | 15 | 77 | 9.7 | 8.0 | 0.00 | 0.08 | 0.00 | ||
| 20260508125544 | 15 | 77 | 9.7 | 8.0 | 0.00 | 0.08 | 0.00 | ||
| 20260508125042 | 15 | 98 | 8.0 | 9.7 | 0.00 | 0.08 | 0.00 | ||
| 20260508124751 | 15 | 86 | 9.7 | 9.7 | 0.00 | 0.08 | 0.00 | ||
| 20260508124623 | 15 | 86 | 9.7 | 9.7 | 0.00 | 0.08 | 0.00 | ||
| 20260508124543 | 15 | 86 | 9.7 | 9.7 | 0.00 | 0.08 | 0.00 | ||
| 20260508122346 | 14 | 60 | 4.8 | 1.6 | 0.00 | 0.08 | 0.00 | ||
| 20260508122034 | 14 | 60 | 4.8 | 1.6 | 0.00 | 0.08 | 0.00 | ||
| 20260508121746 | 14 | 75 | 3.2 | 4.8 | 0.00 | 0.08 | 0.00 | ||
| 20260508121535 | 14 | 75 | 3.2 | 4.8 | 0.00 | 0.08 | 0.00 | ||
| 20260508114751 | 13 | 100 | 4.8 | 4.8 | 0.00 | 0.08 | 0.00 | ||
| 20260508114533 | 13 | 100 | 4.8 | 4.8 | 0.00 | 0.08 | 0.00 | ||
| 20260508114255 | 13 | 83 | 4.8 | 6.4 | 0.00 | 0.08 | 0.00 | ||
| 20260508114032 | 13 | 83 | 4.8 | 6.4 | 0.00 | 0.08 | 0.00 | ||
| 20260508113726 | 13 | 93 | 4.8 | 4.8 | 0.00 | 0.08 | 0.00 | ||
| 20260508113533 | 13 | 93 | 4.8 | 4.8 | 0.00 | 0.08 | 0.00 | ||
| 20260508113226 | 13 | 97 | 3.2 | 3.2 | 0.00 | 0.08 | 0.00 | ||
| 20260508113108 | 13 | 97 | 3.2 | 3.2 | 0.00 | 0.08 | 0.00 | ||
| 20260508113031 | 13 | 97 | 3.2 | 3.2 | 0.00 | 0.08 | 0.00 | ||
| 20260508112659 | 13 | 96 | 4.8 | 3.2 | 0.00 | 0.08 | 0.00 | ||
| 20260508112531 | 13 | 96 | 4.8 | 3.2 | 0.00 | 0.08 | 0.00 | ||
| 20260508112248 | 12 | 103 | 4.8 | 6.4 | 0.00 | 0.08 | 0.00 | ||
| 20260508112030 | 12 | 103 | 4.8 | 6.4 | 0.00 | 0.08 | 0.00 | ||
| 20260508111739 | 12 | 103 | 3.2 | 4.8 | 0.00 | 0.08 | 0.00 | ||
| 20260508111531 | 12 | 103 | 3.2 | 4.8 | 0.00 | 0.08 | 0.00 | ||
| 20260508111233 | 13 | 98 | 3.2 | 4.8 | 0.00 | 0.08 | 0.00 | ||
| 20260508111029 | 13 | 98 | 3.2 | 4.8 | 0.00 | 0.08 | 0.00 | ||
| 20260508110249 | 13 | 96 | 3.2 | 3.2 | 0.00 | 0.08 | 0.00 | ||
| 20260508110029 | 13 | 96 | 3.2 | 3.2 | 0.00 | 0.08 | 0.00 | ||
| 20260508105751 | 13 | 80 | 3.2 | 6.4 | 0.00 | 0.08 | 0.00 | ||
| 20260508105530 | 13 | 80 | 3.2 | 6.4 | 0.00 | 0.08 | 0.00 | ||
| 20260508105028 | 13 | 75 | 6.4 | 8.0 | 0.00 | 0.08 | 0.00 | ||
| 20260508104739 | 13 | 94 | 3.2 | 3.2 | 0.00 | 0.08 | 0.00 | ||
| 20260508104529 | 13 | 94 | 3.2 | 3.2 | 0.00 | 0.08 | 0.00 | ||
| 20260508104233 | 13 | 90 | 4.8 | 11.3 | 0.00 | 0.08 | 0.00 | ||
| 20260508104028 | 13 | 90 | 4.8 | 11.3 | 0.00 | 0.08 | 0.00 | ||
| 20260508103345 | 13 | 101 | 6.4 | 6.4 | 0.00 | 0.08 | 0.00 | ||
| 20260508103026 | 13 | 101 | 6.4 | 6.4 | 0.00 | 0.08 | 0.00 | ||
| 20260508102332 | 13 | 91 | 0.0 | 6.4 | 0.00 | 0.08 | 0.00 | ||
| 20260508102025 | 13 | 91 | 0.0 | 6.4 | 0.00 | 0.08 | 0.00 | ||
| 20260508101257 | 13 | 72 | 0.0 | 0.0 | 0.00 | 0.08 | 0.00 | ||
| 20260508101025 | 13 | 72 | 0.0 | 0.0 | 0.00 | 0.08 | 0.00 | ||
| 20260508100337 | 13 | 72 | 0.0 | 0.0 | 0.00 | 0.08 | 0.00 | ||
| 20260508100145 | 13 | 72 | 0.0 | 0.0 | 0.00 | 0.08 | 0.00 | ||
| 20260508100024 | 13 | 72 | 0.0 | 0.0 | 0.00 | 0.08 | 0.00 | ||
| 20260508095023 | 13 | 72 | 0.0 | 0.0 | 0.00 | 0.08 | 0.00 | ||
| 20260508094525 | 13 | 72 | 0.0 | 0.0 | 0.00 | 0.08 | 0.00 | ||
| 20260508094023 | 13 | 72 | 0.0 | 0.0 | 0.00 | 0.08 | 0.00 | ||
| 20260508093524 | 13 | 72 | 0.0 | 0.0 | 0.00 | 0.08 | 0.00 | ||
| 20260508092522 | 13 | 72 | 0.0 | 0.0 | 0.00 | 0.08 | 0.00 | ||
| 20260508092020 | 13 | 72 | 0.0 | 0.0 | 0.00 | 0.08 | 0.00 | ||
| 20260508091521 | 14 | 72 | 0.0 | 0.0 | 0.00 | 0.08 | 0.00 | ||
| 20260508091019 | 13 | 72 | 0.0 | 0.0 | 0.00 | 0.08 | 0.00 | ||
| 20260508090019 | 14 | 72 | 0.0 | 0.0 | 0.00 | 0.08 | 0.00 | ||
| 20260508085521 | 14 | 72 | 0.0 | 0.0 | 0.00 | 0.08 | 0.00 | ||
| 20260508083253 | 15 | 72 | 0.0 | 0.0 | 0.00 | 0.08 | 0.00 | ||
| 20260508082518 | 14 | 72 | 0.0 | 0.0 | 0.00 | 0.08 | 0.00 | ||
| 20260508082016 | 14 | 72 | 0.0 | 0.0 | 0.00 | 0.08 | 0.00 | ||
| 20260508080516 | 15 | 72 | 0.0 | 0.0 | 0.00 | 0.08 | 0.00 | ||
| 20260508080015 | 15 | 72 | 0.0 | 0.0 | 0.00 | 0.08 | 0.00 | ||
| 20260508073538 | 15 | 72 | 0.0 | 0.0 | 0.00 | 0.08 | 0.00 | ||
| 20260508072218 | 15 | 72 | 0.0 | 0.0 | 0.00 | 0.08 | 0.00 | ||
| 20260508072011 | 15 | 72 | 0.0 | 0.0 | 0.00 | 0.08 | 0.00 | ||
| 20260508071512 | 15 | 72 | 0.0 | 0.0 | 0.00 | 0.08 | 0.00 | ||
| 20260508071011 | 15 | 72 | 0.0 | 0.0 | 0.00 | 0.08 | 0.00 | ||
| 20260508070010 | 15 | 72 | 0.0 | 0.0 | 0.00 | 0.08 | 0.00 | ||
| 20260508065959 | 16 | 94 | 4.8 | 3.2 | 0.00 | 0.08 | 0.00 | ||
| 20260508065654 | 16 | 80 | 3.2 | 1.6 | 0.00 | 0.08 | 0.00 | ||
| 20260508065009 | 15 | 72 | 0.0 | 0.0 | 0.00 | 0.08 | 0.00 | ||
| 20260508064510 | 15 | 72 | 0.0 | 0.0 | 0.00 | 0.08 | 0.00 | ||
| 20260508063510 | 15 | 72 | 0.0 | 0.0 | 0.00 | 0.08 | 0.00 | ||
| 20260508063009 | 16 | 72 | 0.0 | 0.0 | 0.00 | 0.08 | 0.00 | ||
| 20260508062007 | 15 | 72 | 0.0 | 0.0 | 0.00 | 0.08 | 0.00 | ||
| 20260508061508 | 15 | 103 | 3.2 | 3.2 | 0.00 | 0.08 | 0.00 | ||
| 20260508060508 | 16 | 63 | 0.0 | 0.0 | 0.00 | 0.08 | 0.00 | ||
| 20260508060006 | 16 | 63 | 0.0 | 0.0 | 0.00 | 0.08 | 0.00 | ||
| 20260508055507 | 16 | 63 | 0.0 | 0.0 | 0.00 | 0.08 | 0.00 | ||
| 20260508055004 | 16 | 77 | 1.6 | 1.6 | 0.00 | 0.08 | 0.00 | ||
| 20260508054505 | 16 | 114 | 3.2 | 1.6 | 0.00 | 0.08 | 0.00 | ||
| 20260508054004 | 16 | 110 | 3.2 | 1.6 | 0.00 | 0.08 | 0.00 | ||
| 20260508053505 | 16 | 84 | 0.0 | 0.0 | 0.00 | 0.08 | 0.00 | ||
| 20260508053017 | 17 | 187 | 0.0 | 0.0 | 0.00 | 0.08 | 0.00 | ||
| 20260508053003 | 16 | 132 | 3.2 | 3.2 | 0.00 | 0.08 | 0.00 | ||
| 20260508052504 | 16 | 94 | 4.8 | 3.2 | 0.00 | 0.08 | 0.00 | ||
| 20260508052002 | 16 | 80 | 3.2 | 1.6 | 0.00 | 0.08 | 0.00 | ||
| 20260508051503 | 16 | 160 | 0.0 | 4.8 | 0.00 | 0.08 | 0.00 | ||
| 20260508051132 | 17 | 70 | 4.8 | 6.4 | 0.00 | 0.08 | 0.00 | ||
| 20260508051002 | 16 | 58 | 1.6 | 4.8 | 0.00 | 0.08 | 0.00 | ||
| 20260508050503 | 17 | 187 | 0.0 | 0.0 | 0.00 | 0.08 | 0.00 | ||
| 20260508050001 | 17 | 125 | 4.8 | 4.8 | 0.00 | 0.08 | 0.00 | ||
| 20260508045502 | 17 | 83 | 6.4 | 6.4 | 0.00 | 0.08 | 0.00 | ||
| 20260508045000 | 17 | 70 | 4.8 | 6.4 | 0.00 | 0.08 | 0.00 | ||
| 20260508044501 | 17 | 105 | 6.4 | 3.2 | 0.00 | 0.08 | 0.00 | ||
| 20260508044000 | 17 | 69 | 6.4 | 6.4 | 0.00 | 0.08 | 0.00 | ||
| 20260508043501 | 18 | 49 | 6.4 | 3.2 | 0.00 | 0.08 | 0.00 | ||
| 20260508042959 | 18 | 132 | 6.4 | 4.8 | 0.00 | 0.08 | 0.00 | ||
| 20260508042500 | 18 | 79 | 4.8 | 4.8 | 0.00 | 0.08 | 0.00 | ||
| 20260508041958 | 18 | 91 | 3.2 | 3.2 | 0.00 | 0.08 | 0.00 | ||
| 20260508041459 | 18 | 69 | 3.2 | 3.2 | 0.00 | 0.08 | 0.00 | ||
| 20260508040657 | 21 | 249 | 0.0 | 0.0 | 0.00 | 0.00 | 0.08 | ||
| 20260508040617 | 20 | 330 | 0.0 | 0.0 | 0.00 | 0.00 | 0.08 | ||
| 20260508040459 | 20 | 13 | 8.0 | 4.8 | 0.00 | 0.00 | 0.08 | ||
| 20260508035507 | 21 | 219 | 0.0 | 0.0 | 0.00 | 0.00 | 0.08 | ||
| 20260508035458 | 21 | 125 | 1.6 | 4.8 | 0.00 | 0.00 | 0.08 | ||
| 20260508034956 | 20 | 291 | 0.0 | 0.0 | 0.00 | 0.00 | 0.08 | ||
| 20260508034537 | 21 | 15 | 1.6 | 4.8 | 0.00 | 0.00 | 0.08 | ||
| 20260508034457 | 20 | 316 | 0.0 | 3.2 | 0.00 | 0.00 | 0.08 | ||
| 20260508033955 | 21 | 212 | 3.2 | 1.6 | 0.00 | 0.00 | 0.08 | ||
| 20260508033456 | 20 | 349 | 1.6 | 3.2 | 0.00 | 0.00 | 0.08 | ||
| 20260508032955 | 20 | 315 | 3.2 | 3.2 | 0.00 | 0.00 | 0.08 | ||
| 20260508032837 | 21 | 298 | 3.2 | 0.0 | 0.00 | 0.00 | 0.08 | ||
| 20260508032456 | 20 | 290 | 1.6 | 0.0 | 0.00 | 0.00 | 0.08 | ||
| 20260508031954 | 20 | 266 | 0.0 | 0.0 | 0.00 | 0.00 | 0.08 | ||
| 20260508031455 | 20 | 249 | 0.0 | 0.0 | 0.00 | 0.00 | 0.08 | ||
| 20260508030953 | 21 | 249 | 0.0 | 0.0 | 0.00 | 0.00 | 0.08 | ||
| 20260508030454 | 20 | 330 | 0.0 | 0.0 | 0.00 | 0.00 | 0.08 | ||
| 20260508025953 | 21 | 219 | 0.0 | 0.0 | 0.00 | 0.00 | 0.08 | ||
| 20260508025454 | 21 | 219 | 0.0 | 0.0 | 0.00 | 0.00 | 0.08 | ||
| 20260508024952 | 20 | 219 | 1.6 | 0.0 | 0.00 | 0.00 | 0.08 | ||
| 20260508024453 | 21 | 15 | 1.6 | 4.8 | 0.00 | 0.00 | 0.08 | ||
| 20260508023951 | 21 | 301 | 3.2 | 3.2 | 0.00 | 0.00 | 0.08 | ||
| 20260508023452 | 21 | 309 | 6.4 | 6.4 | 0.00 | 0.00 | 0.08 | ||
| 20260508022950 | 21 | 298 | 3.2 | 0.0 | 0.00 | 0.00 | 0.08 | ||
| 20260508022451 | 21 | 253 | 1.6 | 3.2 | 0.00 | 0.00 | 0.08 | ||
| 20260508021949 | 21 | 170 | 4.8 | 1.6 | 0.00 | 0.00 | 0.08 | ||
| 20260508021450 | 21 | 354 | 3.2 | 6.4 | 0.00 | 0.00 | 0.08 | ||
| 20260508020948 | 21 | 214 | 0.0 | 0.0 | 0.00 | 0.00 | 0.08 | ||
| 20260508020449 | 21 | 276 | 1.6 | 1.6 | 0.00 | 0.00 | 0.08 | ||
| 20260508020248 | 21 | 352 | 1.6 | 1.6 | 0.00 | 0.00 | 0.08 | ||
| 20260508015950 | 22 | 197 | 0.0 | 3.2 | 0.00 | 0.00 | 0.08 | ||
| 20260508015947 | 21 | 300 | 0.0 | 3.2 | 0.00 | 0.00 | 0.08 | ||
| 20260508015514 | 22 | 350 | 0.0 | 1.6 | 0.00 | 0.00 | 0.08 | ||
| 20260508015448 | 21 | 359 | 3.2 | 3.2 | 0.00 | 0.00 | 0.08 | ||
| 20260508015037 | 22 | 339 | 1.6 | 1.6 | 0.00 | 0.00 | 0.08 | ||
| 20260508014947 | 21 | 259 | 0.0 | 0.0 | 0.00 | 0.00 | 0.08 | ||
| 20260508014726 | 22 | 332 | 0.0 | 0.0 | 0.00 | 0.00 | 0.08 | ||
| 20260508014546 | 22 | 263 | 0.0 | 0.0 | 0.00 | 0.00 | 0.08 | ||
| 20260508014448 | 21 | 352 | 1.6 | 1.6 | 0.00 | 0.00 | 0.08 | ||
| 20260508014436 | 22 | 267 | 3.2 | 4.8 | 0.00 | 0.00 | 0.08 | ||
| 20260508013946 | 21 | 307 | 1.6 | 3.2 | 0.00 | 0.00 | 0.08 | ||
| 20260508013447 | 21 | 198 | 0.0 | 0.0 | 0.00 | 0.00 | 0.08 | ||
| 20260508012945 | 21 | 263 | 4.8 | 4.8 | 0.00 | 0.00 | 0.08 | ||
| 20260508012446 | 21 | 287 | 1.6 | 1.6 | 0.00 | 0.00 | 0.08 | ||
| 20260508011944 | 21 | 302 | 0.0 | 1.6 | 0.00 | 0.00 | 0.08 | ||
| 20260508011445 | 21 | 239 | 0.0 | 0.0 | 0.00 | 0.00 | 0.08 | ||
| 20260508010943 | 21 | 345 | 1.6 | 0.0 | 0.00 | 0.00 | 0.08 | ||
| 20260508010444 | 21 | 335 | 1.6 | 1.6 | 0.00 | 0.00 | 0.08 | ||
| 20260508005943 | 21 | 325 | 1.6 | 1.6 | 0.00 | 0.00 | 0.08 | ||
| 20260508005444 | 22 | 318 | 1.6 | 3.2 | 0.00 | 0.00 | 0.08 | ||
| 20260508004942 | 22 | 8 | 1.6 | 3.2 | 0.00 | 0.00 | 0.08 | ||
| 20260508004443 | 22 | 262 | 0.0 | 0.0 | 0.00 | 0.00 | 0.08 | ||
| 20260508003941 | 22 | 197 | 0.0 | 3.2 | 0.00 | 0.00 | 0.08 | ||
| 20260508003442 | 22 | 350 | 0.0 | 1.6 | 0.00 | 0.00 | 0.08 | ||
| 20260508002940 | 22 | 339 | 1.6 | 1.6 | 0.00 | 0.00 | 0.08 | ||
| 20260508002441 | 22 | 332 | 0.0 | 0.0 | 0.00 | 0.00 | 0.08 | ||
| 20260508001940 | 22 | 263 | 0.0 | 0.0 | 0.00 | 0.00 | 0.08 | ||
| 20260508001440 | 22 | 267 | 3.2 | 4.8 | 0.00 | 0.00 | 0.08 | ||
| 20260508000939 | 22 | 309 | 1.6 | 0.0 | 0.00 | 0.00 | 0.08 | ||
| 20260508000441 | 22 | 328 | 1.6 | 0.0 | 0.00 | 0.00 | 0.08 | ||
| 20260508000436 | 23 | 243 | 3.2 | 1.6 | 0.00 | 0.00 | 0.08 | ||
| 20260507234437 | 23 | 281 | 3.2 | 1.6 | 0.00 | 0.00 | 0.08 | ||
| 20260507233935 | 23 | 269 | 3.2 | 0.0 | 0.00 | 0.00 | 0.08 | ||
| 20260507233436 | 23 | 340 | 1.6 | 3.2 | 0.00 | 0.00 | 0.08 | ||
| 20260507232934 | 23 | 243 | 3.2 | 1.6 | 0.00 | 0.00 | 0.08 | ||
| 20260507232435 | 23 | 323 | 0.0 | 0.0 | 0.00 | 0.00 | 0.08 | ||
| 20260507231933 | 23 | 294 | 4.8 | 8.0 | 0.00 | 0.00 | 0.08 |